Location: Владивосток
(43.1151°N, 131.8856°E)
Time: 17:31:04
(UTC+10:00)

FENGYUN 1C DEB - Pass Details

Date: 22 May 2025
Orbit: 716 x 738 km, 98.8° (Epoch: 20 June)

Event Time Altitude Azimuth Distance (km) Brightness Sun altitude
Exits shadow 01:01:41 18° 89° (E) 1,755 ? -26.5°
Maximum altitude 01:03:19 21° 63° (ENE) 1,606 ? -26.5°
Drops below altitude 10° 01:06:58 10° 15° (NNE) 2,241 ? -26.6°
Sets 01:09:42 0° 360° (N) 3,163 ? -26.6°
